TimeEST,TemperatureF,Dew PointF,Humidity,Sea Level PressureIn,VisibilityMPH,Wind Direction,Wind SpeedMPH,Gust SpeedMPH,PrecipitationIn,Events,Conditions,WindDirDegrees,DateUTC
12:00 AM,73.4,66.2,78,30.17,6.2,East,9.2,-,N/A,,Partly Cloudy,90,2013-12-20 05:00:00
1:00 AM,74,69,78,30.16,9,East,9.2,,,,Scattered Clouds,90,2013-12-20 06:00:00
1:00 AM,73.4,68.0,83,30.16,6.2,East,9.2,-,N/A,,Partly Cloudy,90,2013-12-20 06:00:00
2:00 AM,73.4,66.2,78,30.14,6.2,East,8.1,-,N/A,,Partly Cloudy,90,2013-12-20 07:00:00
3:00 AM,73.4,66.2,78,30.12,6.2,East,8.1,-,N/A,,Partly Cloudy,90,2013-12-20 08:00:00
4:00 AM,73,68,81,30.14,9,East,6.9,,,,,90,2013-12-20 09:00:00
4:00 AM,73.4,68.0,83,30.12,-9999.0,East,6.9,-,N/A,,Clear,90,2013-12-20 09:00:00
6:00 AM,73.4,66.2,78,30.16,6.2,ENE,5.8,-,N/A,,Partly Cloudy,60,2013-12-20 11:00:00
7:00 AM,73,68,79,30.18,9,ENE,4.6,,,,Scattered Clouds,60,2013-12-20 12:00:00
7:00 AM,73.4,68.0,83,30.17,6.2,ENE,4.6,-,N/A,,Partly Cloudy,60,2013-12-20 12:00:00
8:00 AM,75.2,66.2,73,30.18,6.2,East,6.9,-,N/A,,Partly Cloudy,90,2013-12-20 13:00:00
9:00 AM,77.0,66.2,69,30.19,6.2,East,11.5,-,N/A,,Partly Cloudy,90,2013-12-20 14:00:00
10:00 AM,80,70,65,30.20,9,East,13.8,,,,Scattered Clouds,90,2013-12-20 15:00:00
10:00 AM,80.6,69.8,70,30.20,6.2,East,13.8,-,N/A,,Partly Cloudy,90,2013-12-20 15:00:00
11:00 AM,78.8,68.0,69,30.19,6.2,East,11.5,-,N/A,,Partly Cloudy,100,2013-12-20 16:00:00
12:00 PM,80.6,68.0,65,30.18,6.2,East,11.5,-,N/A,,Partly Cloudy,80,2013-12-20 17:00:00
1:00 PM,82,71,62,30.15,9,East,11.5,,,,Scattered Clouds,90,2013-12-20 18:00:00
1:00 PM,82.4,71.6,70,30.14,6.2,East,11.5,-,N/A,,Partly Cloudy,90,2013-12-20 18:00:00
2:00 PM,80.6,66.2,61,30.12,6.2,East,12.7,-,N/A,,Partly Cloudy,90,2013-12-20 19:00:00
3:00 PM,80.6,68.0,65,30.12,6.2,East,13.8,-,N/A,,Partly Cloudy,90,2013-12-20 20:00:00
4:00 PM,81,72,68,30.12,9,East,13.8,,,,Scattered Clouds,80,2013-12-20 21:00:00
4:00 PM,80.6,71.6,74,30.12,6.2,East,13.8,-,N/A,,Partly Cloudy,80,2013-12-20 21:00:00
6:00 PM,77.0,69.8,78,30.14,6.2,East,11.5,-,N/A,,Partly Cloudy,90,2013-12-20 23:00:00
7:00 PM,77,71,76,30.16,9,East,6.9,,,,Partly Cloudy,80,2013-12-21 00:00:00
7:00 PM,77.0,71.6,83,30.16,6.2,East,6.9,-,N/A,,Partly Cloudy,80,2013-12-21 00:00:00
8:00 PM,75.2,69.8,83,30.17,6.2,East,9.2,-,N/A,,Partly Cloudy,80,2013-12-21 01:00:00
11:00 PM,75.2,69.8,83,30.16,6.2,East,5.8,-,N/A,,Partly Cloudy,100,2013-12-21 04:00:00